Home   Weather   Katowice   Past weeks

Flag for Poland Past Weather in Katowice, Poland — Yesterday and Last 2 Weeks

Now
39 °F

Drizzle. Fog.


Feels Like: 32 °F
Forecast: 38 / 42 °F
Wind: 10 mph from Northeast

Location: Katowice Airport

Current Time: Apr 26, 2017 at 3:39:20 pm

Latest Report: Apr 26, 2017 at 3:00 pm


Visibility: 2 mi

Pressure: 29.83 "Hg

Humidity: 93%

Dew Point: 37 °F

Location of KatowiceLocation

Past Weather in Katowice — Graph

°F

Katowice Temperature Yesterday

Maximum temperature yesterday: 59 °F (at 1:30 pm)
Minimum temperature yesterday: 39 °F (at 1:30 am)
Average temperature yesterday: 50 °F

High & Low Weather Summary for the Past Weeks

 TemperatureHumidityPressure
High59 °F (Apr 25, 1:30 pm)100% (Apr 17, 1:00 am)30.39 "Hg (Apr 17, 1:00 am)
Low25 °F (Apr 21, 2:00 am)38% (Apr 24, 5:00 pm)29.68 "Hg (Apr 13, 5:30 am)
Average41 °F73%29.97 "Hg
* Reported Apr 11 2:00 pm — Apr 26 2:00 pm, Katowice, Weather by CustomWeather, © 2017

Note: Actual official high and low records may vary slightly from our data, if they occured in-between our weather recording intervals... More about our weather records

Advertising

Katowice Weather History for the Previous 24 Hours

Scroll right to see more
 ConditionsComfort  
Time TempWeatherWind HumidityBarometerVisibility
2:00 pm
Wed, Apr 26
39 °FDrizzle. Partly sunny.10 mph93%29.83 "Hg4 mi
1:30 pm39 °FLight rain. Partly sunny.10 mph93%29.83 "Hg6 mi
1:00 pm39 °FLight rain. Partly sunny.10 mph93%29.83 "HgN/A
12:30 pm39 °FDrizzle. Partly sunny.9 mph93%29.83 "HgN/A
12:00 pm39 °FRain. Partly sunny.9 mph93%29.83 "HgN/A
11:30 am39 °FLight rain. Partly sunny.9 mph93%29.83 "HgN/A
11:00 am39 °FLight rain. Partly sunny.9 mph93%29.83 "HgN/A
10:30 am39 °FPartly sunny.9 mph93%29.83 "HgN/A
10:00 am39 °FLight rain. Broken clouds.8 mph93%29.83 "Hg6 mi
9:30 am39 °FLight rain. Broken clouds.8 mph93%29.83 "Hg4 mi
9:00 am37 °FLight rain. Partly sunny.7 mph100%29.83 "Hg4 mi
8:30 am37 °FLight rain. Mostly cloudy.6 mph100%29.83 "Hg4 mi
8:00 am37 °FLight rain. Fog.7 mph93%29.83 "Hg3 mi
7:30 am37 °FRain. Fog.7 mph100%29.80 "Hg2 mi
7:00 am39 °FDrizzle. Fog.6 mph93%29.80 "Hg2 mi
6:30 am39 °FLight rain. Fog.6 mph93%29.80 "Hg2 mi
6:00 am39 °FLight rain. Fog.8 mph93%29.80 "Hg2 mi
5:30 am39 °FLight rain. Fog.7 mph93%29.80 "Hg2 mi
5:00 am39 °FLight rain. Fog.9 mph93%29.77 "Hg1 mi
4:30 am41 °FLight rain. Fog.8 mph93%29.77 "Hg3 mi
4:00 am41 °FLight rain. Partly cloudy.5 mph93%29.77 "Hg4 mi
3:30 am41 °FLight rain. Mostly cloudy.7 mph93%29.77 "Hg4 mi
3:00 am41 °FLight rain. Mostly cloudy.7 mph93%29.77 "HgN/A
2:30 am41 °FLight rain. Partly cloudy.9 mph93%29.77 "HgN/A
2:00 am43 °FLight rain. Partly cloudy.12 mph87%29.77 "HgN/A
1:30 am45 °FLight rain. Partly cloudy.7 mph87%29.77 "HgN/A
1:00 am45 °FLight rain. Partly cloudy.10 mph87%29.77 "Hg6 mi
12:30 am46 °FLight rain. Overcast.9 mph87%29.74 "Hg4 mi
12:00 am46 °FLight rain. Mostly cloudy.12 mph87%29.74 "Hg4 mi
11:30 pm
Tue, Apr 25
50 °FOvercast.10 mph76%29.74 "HgN/A
11:00 pm50 °FOvercast.14 mph76%29.71 "HgN/A
10:30 pm52 °FPassing clouds.7 mph77%29.71 "HgN/A
10:00 pm54 °FPassing clouds.6 mph72%29.71 "HgN/A
9:30 pm54 °FPassing clouds.6 mph72%29.71 "HgN/A
9:00 pm54 °FPassing clouds.6 mph72%29.68 "HgN/A
8:30 pm54 °FClear.7 mph72%29.68 "Hg10 mi
8:00 pm55 °FPassing clouds.7 mph67%29.68 "HgN/A
7:30 pm55 °FSunny.10 mph67%29.68 "Hg10 mi
7:00 pm57 °FSunny.12 mph63%29.68 "Hg10 mi
6:30 pm57 °FSunny.14 mph63%29.68 "Hg10 mi
6:00 pm55 °FSunny.13 mph67%29.68 "Hg10 mi
5:30 pm55 °FSunny.16 mph67%29.68 "Hg10 mi
5:00 pm55 °FSunny.12 mph72%29.71 "Hg10 mi
4:30 pm54 °FPassing clouds.13 mph77%29.71 "HgN/A
4:00 pm54 °FSprinkles. Scattered clouds.16 mph77%29.71 "Hg5 mi
3:30 pm54 °FSprinkles. Scattered clouds.16 mph77%29.74 "Hg4 mi
3:00 pm52 °FRain showers. Partly sunny.17 mph82%29.71 "Hg4 mi
Weather by CustomWeather, © 2017

See weather overviewHow to use our weather pages